EWG82N EDDG-LEPA

Flight info

Callsign EWG82N
Flight time 1h 58m
Altitude 24000
Route DOMEG1E DOMEG N853 QATJA Y841 NVO/N0447F360 Y841 KENUM DCT GESLO/N0441F350 N852 SUTAL DCT GTQ DCT POGOL DCT LASAT DCT MOROK DCT GILIR/N0439F370 DCT GEVEA DCT INCUS DCT BALSI DCT RETNO DCT TUPOX DCT MTG DCT DIVKO DCT VATIR DCT PIVUS DCT BODEQ DCT VERSO L129 LUNIK
Aircraft A320/M-SDE3FGHIRWY/LB1

Departure

Time 2026-04-21 15:09
Airport Münster Osnabrück Airport (EDDG)

Arrival

Time 2026-04-21 17:08
Airport Palma de Mallorca Airport (LEPA)
Time Latitude Longitude Altitude Speed Heading
2026-04-21 14:34 52.13158 7.69306 168 ft 0 kts 194°
2026-04-21 15:04 52.13157 7.69305 168 ft 0 kts 198°
2026-04-21 15:04 52.13156 7.69301 168 ft 0 kts 248°
2026-04-21 15:05 52.13162 7.69280 167 ft 3 kts 306°
2026-04-21 15:05 52.13183 7.69123 167 ft 12 kts 253°
2026-04-21 15:05 52.13163 7.68977 167 ft 13 kts 288°
2026-04-21 15:06 52.13246 7.68905 168 ft 14 kts 342°
2026-04-21 15:06 52.13340 7.68841 168 ft 14 kts 312°
2026-04-21 15:06 52.13331 7.68682 168 ft 16 kts 250°
2026-04-21 15:06 52.13291 7.68499 167 ft 18 kts 251°
2026-04-21 15:07 52.13249 7.68297 167 ft 19 kts 251°
2026-04-21 15:07 52.13201 7.68073 167 ft 21 kts 251°
2026-04-21 15:07 52.13152 7.67840 168 ft 22 kts 251°
2026-04-21 15:07 52.13102 7.67603 168 ft 21 kts 251°
2026-04-21 15:08 52.13052 7.67371 167 ft 21 kts 251°
2026-04-21 15:08 52.13028 7.67179 167 ft 17 kts 282°
2026-04-21 15:08 52.13107 7.67042 168 ft 16 kts 340°
2026-04-21 15:08 52.13168 7.67084 168 ft 10 kts 70°
2026-04-21 15:09 52.13211 7.67287 168 ft 45 kts 71°
2026-04-21 15:09 52.13392 7.68136 168 ft 112 kts 72°
2026-04-21 15:09 52.13708 7.69631 226 ft 159 kts 70°
2026-04-21 15:09 52.14076 7.71283 870 ft 155 kts 70°
2026-04-21 15:10 52.14429 7.72911 1540 ft 157 kts 70°
2026-04-21 15:10 52.14787 7.74640 2031 ft 170 kts 70°
2026-04-21 15:10 52.15192 7.76530 2484 ft 186 kts 69°
2026-04-21 15:10 52.15609 7.78620 2935 ft 203 kts 80°
2026-04-21 15:11 52.15426 7.80986 3420 ft 225 kts 112°
2026-04-21 15:11 52.14447 7.83030 3997 ft 245 kts 139°
2026-04-21 15:11 52.12866 7.84274 4592 ft 263 kts 159°
2026-04-21 15:11 52.11096 7.85161 5398 ft 267 kts 160°
2026-04-21 15:12 52.09276 7.85628 6171 ft 276 kts 181°
2026-04-21 15:12 52.07429 7.84770 6987 ft 283 kts 204°
2026-04-21 15:12 52.05654 7.83353 7690 ft 288 kts 203°
2026-04-21 15:12 52.03844 7.81964 8472 ft 290 kts 202°
2026-04-21 15:13 52.02021 7.80615 9238 ft 294 kts 201°
2026-04-21 15:13 52.00140 7.79254 9969 ft 298 kts 200°
2026-04-21 15:13 51.98253 7.77906 10643 ft 303 kts 200°
2026-04-21 15:13 51.96265 7.76500 11057 ft 318 kts 200°
2026-04-21 15:14 51.94227 7.75062 11604 ft 327 kts 201°
2026-04-21 15:14 51.92141 7.73587 12296 ft 331 kts 201°
2026-04-21 15:14 51.90012 7.72083 12981 ft 334 kts 201°
2026-04-21 15:14 51.87879 7.70578 13631 ft 337 kts 201°
2026-04-21 15:15 51.85728 7.69062 14261 ft 341 kts 200°
2026-04-21 15:15 51.83550 7.67530 14900 ft 343 kts 200°
2026-04-21 15:15 51.81359 7.65991 15510 ft 347 kts 200°
2026-04-21 15:15 51.79168 7.64455 16093 ft 350 kts 200°
2026-04-21 15:16 51.76926 7.62886 16680 ft 353 kts 200°
2026-04-21 15:16 51.74666 7.61306 17266 ft 356 kts 200°
2026-04-21 15:16 51.72406 7.59726 17824 ft 359 kts 200°
2026-04-21 15:16 51.70059 7.58264 18365 ft 361 kts 195°
2026-04-21 15:17 51.67678 7.57033 18889 ft 364 kts 194°
2026-04-21 15:17 51.65278 7.55830 19402 ft 367 kts 194°
2026-04-21 15:17 51.62822 7.54605 19924 ft 370 kts 194°
2026-04-21 15:17 51.60372 7.53381 20452 ft 372 kts 194°
2026-04-21 15:18 51.57894 7.52140 20958 ft 374 kts 194°
2026-04-21 15:18 51.55432 7.50906 21456 ft 377 kts 194°
2026-04-21 15:18 51.52904 7.49641 21950 ft 380 kts 194°
2026-04-21 15:18 51.50389 7.48386 22427 ft 382 kts 194°
2026-04-21 15:19 51.47852 7.47118 22898 ft 385 kts 194°
2026-04-21 15:19 51.45312 7.45848 23350 ft 387 kts 194°
2026-04-21 15:19 51.42740 7.44565 23793 ft 390 kts 194°
2026-04-21 15:19 51.40157 7.43306 24220 ft 392 kts 192°
2026-04-21 15:20 51.37494 7.42363 24633 ft 393 kts 188°
2026-04-21 15:20 51.34809 7.41573 25029 ft 395 kts 187°
2026-04-21 15:20 51.32097 7.40791 25402 ft 398 kts 188°
2026-04-21 15:20 51.29376 7.39989 25783 ft 400 kts 188°
2026-04-21 15:21 51.26642 7.39166 26147 ft 403 kts 188°
2026-04-21 15:21 51.23895 7.38326 26503 ft 405 kts 188°
2026-04-21 15:21 51.21143 7.37481 26844 ft 407 kts 189°
2026-04-21 15:21 51.18348 7.36620 27177 ft 409 kts 189°
2026-04-21 15:22 51.15540 7.35754 27507 ft 411 kts 189°
2026-04-21 15:22 51.12741 7.34888 27821 ft 414 kts 188°
2026-04-21 15:22 51.09898 7.34011 28135 ft 416 kts 189°
2026-04-21 15:22 51.07069 7.33138 28428 ft 418 kts 189°
2026-04-21 15:23 51.04221 7.32260 28712 ft 420 kts 189°
2026-04-21 15:23 51.01361 7.31379 28984 ft 422 kts 189°
2026-04-21 15:23 50.98466 7.30488 29254 ft 425 kts 189°
2026-04-21 15:23 50.95565 7.29595 29542 ft 426 kts 189°
2026-04-21 15:24 50.92668 7.28705 29812 ft 428 kts 189°
2026-04-21 15:24 50.89852 7.27842 30066 ft 429 kts 189°
2026-04-21 15:24 50.86918 7.26942 30324 ft 431 kts 190°
2026-04-21 15:24 50.83969 7.26040 30572 ft 433 kts 190°
2026-04-21 15:25 50.80995 7.25133 30799 ft 435 kts 190°
2026-04-21 15:25 50.78017 7.24227 30987 ft 437 kts 190°
2026-04-21 15:25 50.75040 7.23321 31172 ft 439 kts 190°
2026-04-21 15:25 50.72041 7.22408 31358 ft 441 kts 191°
2026-04-21 15:26 50.69061 7.21502 31554 ft 443 kts 191°
2026-04-21 15:26 50.66011 7.20576 31738 ft 445 kts 191°
2026-04-21 15:26 50.62981 7.19660 31892 ft 447 kts 191°
2026-04-21 15:26 50.59917 7.18734 32046 ft 449 kts 191°
2026-04-21 15:27 50.56889 7.17819 32203 ft 450 kts 191°
2026-04-21 15:27 50.53813 7.16891 32362 ft 451 kts 192°
2026-04-21 15:27 50.50737 7.15963 32512 ft 453 kts 192°
2026-04-21 15:27 50.47633 7.15027 32670 ft 454 kts 192°
2026-04-21 15:28 50.44541 7.14096 32821 ft 455 kts 192°
2026-04-21 15:28 50.41425 7.13159 32963 ft 457 kts 192°
2026-04-21 15:28 50.38302 7.12224 33102 ft 458 kts 192°
2026-04-21 15:28 50.35191 7.11292 33233 ft 459 kts 192°
2026-04-21 15:29 50.32072 7.10361 33360 ft 461 kts 192°
2026-04-21 15:29 50.28904 7.09416 33485 ft 462 kts 192°
2026-04-21 15:29 50.25783 7.08484 33605 ft 463 kts 192°
2026-04-21 15:29 50.22610 7.07540 33716 ft 465 kts 193°
2026-04-21 15:30 50.19443 7.06598 33849 ft 466 kts 193°
2026-04-21 15:30 50.16251 7.05650 33980 ft 467 kts 193°
2026-04-21 15:30 50.13072 7.04708 34113 ft 468 kts 193°
2026-04-21 15:30 50.09822 7.03745 34256 ft 469 kts 193°
2026-04-21 15:31 50.06626 7.02800 34437 ft 469 kts 193°
2026-04-21 15:31 50.03469 7.01867 34624 ft 468 kts 193°
2026-04-21 15:31 50.00241 7.00915 34789 ft 468 kts 193°
2026-04-21 15:31 49.97060 6.99977 34918 ft 469 kts 193°
2026-04-21 15:32 49.93866 6.99036 35032 ft 470 kts 193°
2026-04-21 15:32 49.90648 6.98091 35145 ft 471 kts 193°
2026-04-21 15:32 49.84356 6.96247 35193 ft 472 kts 193°
2026-04-21 15:33 49.77933 6.94371 35188 ft 473 kts 193°
2026-04-21 15:33 49.71465 6.92486 35177 ft 472 kts 194°
2026-04-21 15:34 49.65034 6.90616 35174 ft 472 kts 194°
2026-04-21 15:34 49.58604 6.88753 35175 ft 472 kts 194°
2026-04-21 15:35 49.52198 6.86899 35172 ft 472 kts 194°
2026-04-21 15:35 49.45736 6.85036 35158 ft 472 kts 194°
2026-04-21 15:36 49.39305 6.83184 35163 ft 472 kts 194°
2026-04-21 15:36 49.32877 6.81342 35163 ft 472 kts 195°
2026-04-21 15:37 49.26446 6.79503 35174 ft 472 kts 195°
2026-04-21 15:37 49.20021 6.77671 35164 ft 471 kts 195°
2026-04-21 15:38 49.13573 6.75838 35158 ft 472 kts 195°
2026-04-21 15:38 49.07138 6.74012 35167 ft 472 kts 195°
2026-04-21 15:39 49.00696 6.72265 35075 ft 474 kts 193°
2026-04-21 15:39 48.94127 6.71394 35125 ft 478 kts 186°
2026-04-21 15:40 48.87486 6.71152 35150 ft 478 kts 186°
2026-04-21 15:40 48.80840 6.70901 35138 ft 478 kts 186°
2026-04-21 15:41 48.74206 6.70647 35157 ft 478 kts 187°
2026-04-21 15:41 48.67554 6.70390 35140 ft 479 kts 187°
2026-04-21 15:42 48.60936 6.70134 35129 ft 479 kts 187°
2026-04-21 15:42 48.54270 6.69874 35136 ft 479 kts 187°
2026-04-21 15:43 48.47619 6.69621 35111 ft 479 kts 187°
2026-04-21 15:43 48.40990 6.69368 35115 ft 479 kts 188°
2026-04-21 15:44 48.34355 6.69108 35107 ft 480 kts 188°
2026-04-21 15:44 48.27691 6.68853 35092 ft 479 kts 188°
2026-04-21 15:45 48.21028 6.68597 35107 ft 480 kts 188°
2026-04-21 15:45 48.14382 6.68344 35117 ft 480 kts 188°
2026-04-21 15:46 48.07713 6.68088 35100 ft 480 kts 188°
2026-04-21 15:46 48.01081 6.67835 35096 ft 481 kts 189°
2026-04-21 15:47 47.94400 6.67576 35060 ft 481 kts 189°
2026-04-21 15:47 47.87734 6.67323 35072 ft 481 kts 189°
2026-04-21 15:48 47.81068 6.67077 35082 ft 478 kts 189°
2026-04-21 15:48 47.74395 6.66825 35068 ft 480 kts 189°
2026-04-21 15:49 47.67783 6.66579 35090 ft 478 kts 189°
2026-04-21 15:49 47.61148 6.66331 35073 ft 480 kts 189°
2026-04-21 15:50 47.54478 6.66087 35073 ft 478 kts 189°
2026-04-21 15:50 47.47879 6.65762 35072 ft 473 kts 193°
2026-04-21 15:51 47.41548 6.63868 35072 ft 459 kts 207°
2026-04-21 15:51 47.35839 6.60035 35039 ft 444 kts 220°
2026-04-21 15:52 47.30975 6.54712 35052 ft 433 kts 229°
2026-04-21 15:52 47.26405 6.48938 35047 ft 433 kts 229°
2026-04-21 15:53 47.21851 6.43211 35039 ft 433 kts 229°
2026-04-21 15:53 47.17285 6.37515 35006 ft 432 kts 229°
2026-04-21 15:54 47.12667 6.31862 35038 ft 436 kts 225°
2026-04-21 15:54 47.07456 6.27153 35020 ft 450 kts 214°
2026-04-21 15:55 47.01527 6.23893 35020 ft 463 kts 202°
2026-04-21 15:55 46.95110 6.22335 35020 ft 474 kts 193°
2026-04-21 15:56 46.88562 6.21491 35007 ft 473 kts 192°
2026-04-21 15:56 46.82007 6.20657 35007 ft 473 kts 192°
2026-04-21 15:57 46.75452 6.19796 34999 ft 473 kts 192°
2026-04-21 15:57 46.68913 6.18931 35006 ft 473 kts 193°
2026-04-21 15:58 46.62383 6.18067 35008 ft 472 kts 193°
2026-04-21 15:58 46.55863 6.17205 34998 ft 471 kts 192°
2026-04-21 15:59 46.49373 6.16349 35008 ft 471 kts 192°
2026-04-21 15:59 46.42867 6.15495 35000 ft 470 kts 193°
2026-04-21 16:00 46.36336 6.14640 35005 ft 470 kts 193°
2026-04-21 16:00 46.29861 6.13791 35007 ft 470 kts 192°
2026-04-21 16:01 46.23362 6.12760 35003 ft 466 kts 196°
2026-04-21 16:01 46.16960 6.11326 35002 ft 465 kts 196°
2026-04-21 16:02 46.10602 6.09912 34992 ft 465 kts 196°
2026-04-21 16:02 46.04225 6.08500 34994 ft 466 kts 196°
2026-04-21 16:03 45.97819 6.07086 34978 ft 465 kts 196°
2026-04-21 16:03 45.91434 6.05679 34977 ft 465 kts 196°
2026-04-21 16:04 45.85027 6.04266 34974 ft 467 kts 196°
2026-04-21 16:04 45.78647 6.02854 34972 ft 466 kts 197°
2026-04-21 16:05 45.72262 6.01442 34974 ft 466 kts 196°
2026-04-21 16:05 45.65831 6.00026 34972 ft 467 kts 196°
2026-04-21 16:06 45.59438 5.98624 34971 ft 468 kts 196°
2026-04-21 16:06 45.53018 5.97220 34964 ft 468 kts 196°
2026-04-21 16:07 45.46615 5.95713 34967 ft 464 kts 200°
2026-04-21 16:07 45.40324 5.93741 34982 ft 464 kts 200°
2026-04-21 16:08 45.30896 5.90794 35001 ft 464 kts 200°
2026-04-21 16:09 45.24622 5.88843 35007 ft 463 kts 200°
2026-04-21 16:09 45.18318 5.86886 35010 ft 463 kts 200°
2026-04-21 16:10 45.12061 5.84947 35013 ft 464 kts 200°
2026-04-21 16:10 45.05732 5.82991 35017 ft 464 kts 200°
2026-04-21 16:11 44.99487 5.81069 35012 ft 464 kts 201°
2026-04-21 16:11 44.93189 5.79129 35011 ft 462 kts 200°
2026-04-21 16:12 44.87961 5.77522 34998 ft 463 kts 200°
2026-04-21 16:12 44.80616 5.75273 34992 ft 463 kts 200°
2026-04-21 16:13 44.74333 5.73350 34969 ft 461 kts 200°
2026-04-21 16:13 44.68091 5.71448 34970 ft 462 kts 200°
2026-04-21 16:14 44.61796 5.69535 34971 ft 462 kts 200°
2026-04-21 16:14 44.55540 5.67636 34956 ft 461 kts 200°
2026-04-21 16:15 44.49303 5.65751 34958 ft 461 kts 200°
2026-04-21 16:15 44.43049 5.63860 34951 ft 461 kts 200°
2026-04-21 16:16 44.36887 5.61590 34954 ft 454 kts 206°
2026-04-21 16:16 44.30997 5.58507 34954 ft 451 kts 209°
2026-04-21 16:17 44.25195 5.55319 34940 ft 450 kts 209°
2026-04-21 16:17 44.19381 5.52141 34931 ft 451 kts 209°
2026-04-21 16:18 44.13553 5.48965 34930 ft 449 kts 209°
2026-04-21 16:18 44.07736 5.45803 34933 ft 448 kts 209°
2026-04-21 16:19 44.01947 5.42659 34924 ft 448 kts 209°
2026-04-21 16:19 43.96146 5.39517 34919 ft 449 kts 209°
2026-04-21 16:20 43.90329 5.36365 34910 ft 448 kts 209°
2026-04-21 16:20 43.84515 5.33222 34900 ft 449 kts 208°
2026-04-21 16:21 43.78739 5.30108 34883 ft 449 kts 208°
2026-04-21 16:21 43.72908 5.26971 34881 ft 449 kts 208°
2026-04-21 16:22 43.67125 5.23869 34876 ft 448 kts 208°
2026-04-21 16:22 43.61326 5.20763 34884 ft 448 kts 208°
2026-04-21 16:23 43.55524 5.17664 34885 ft 447 kts 208°
2026-04-21 16:23 43.49748 5.14586 34891 ft 446 kts 208°
2026-04-21 16:24 43.43956 5.11489 34886 ft 445 kts 209°
2026-04-21 16:24 43.38407 5.07913 34886 ft 438 kts 215°
2026-04-21 16:25 43.33257 5.03614 34880 ft 433 kts 221°
2026-04-21 16:25 43.28305 4.98938 34869 ft 431 kts 221°
2026-04-21 16:26 43.23365 4.94295 34861 ft 432 kts 221°
2026-04-21 16:26 43.18426 4.89659 34862 ft 431 kts 221°
2026-04-21 16:27 43.13470 4.85019 34870 ft 431 kts 220°
2026-04-21 16:27 43.08537 4.80409 34878 ft 431 kts 220°
2026-04-21 16:28 43.03460 4.76044 34882 ft 435 kts 215°
2026-04-21 16:28 42.98211 4.72059 34882 ft 435 kts 215°
2026-04-21 16:29 42.93822 4.68729 34880 ft 435 kts 215°
2026-04-21 16:29 42.87648 4.64057 34881 ft 435 kts 215°
2026-04-21 16:30 42.82359 4.60064 34881 ft 435 kts 215°
2026-04-21 16:30 42.77094 4.56098 34877 ft 436 kts 214°
2026-04-21 16:31 42.71796 4.52116 34875 ft 435 kts 214°
2026-04-21 16:31 42.66497 4.48140 34874 ft 436 kts 214°
2026-04-21 16:32 42.61208 4.44179 34875 ft 436 kts 214°
2026-04-21 16:32 42.55909 4.40219 34873 ft 437 kts 214°
2026-04-21 16:33 42.50565 4.36234 34875 ft 437 kts 214°
2026-04-21 16:33 42.45231 4.32265 34875 ft 437 kts 213°
2026-04-21 16:34 42.39909 4.28311 34878 ft 438 kts 213°
2026-04-21 16:34 42.34588 4.24365 34873 ft 439 kts 213°
2026-04-21 16:35 42.29259 4.20423 34872 ft 438 kts 213°
2026-04-21 16:35 42.23883 4.16453 34879 ft 439 kts 213°
2026-04-21 16:36 42.18530 4.12508 34879 ft 439 kts 213°
2026-04-21 16:36 42.13215 4.08598 34895 ft 439 kts 213°
2026-04-21 16:37 42.07828 4.04642 34890 ft 440 kts 213°
2026-04-21 16:37 42.02444 4.00699 34894 ft 442 kts 213°
2026-04-21 16:38 41.96994 3.96930 34900 ft 445 kts 208°
2026-04-21 16:38 41.91221 3.93895 34896 ft 448 kts 202°
2026-04-21 16:39 41.85223 3.91733 34901 ft 450 kts 196°
2026-04-21 16:39 41.79037 3.90264 34898 ft 450 kts 194°
2026-04-21 16:40 41.72865 3.88846 34900 ft 451 kts 194°
2026-04-21 16:40 41.66699 3.87428 34894 ft 451 kts 194°
2026-04-21 16:41 41.61563 3.86247 34898 ft 451 kts 194°
2026-04-21 16:41 41.54375 3.84591 34896 ft 451 kts 194°
2026-04-21 16:42 41.48222 3.83178 34898 ft 451 kts 194°
2026-04-21 16:42 41.42008 3.81756 34897 ft 451 kts 194°
2026-04-21 16:43 41.35856 3.80353 34895 ft 450 kts 194°
2026-04-21 16:43 41.29696 3.78951 34897 ft 450 kts 194°
2026-04-21 16:44 41.23534 3.77552 34524 ft 451 kts 194°
2026-04-21 16:44 41.20462 3.76850 33912 ft 448 kts 194°
2026-04-21 16:44 41.17435 3.76016 33212 ft 445 kts 198°
2026-04-21 16:44 41.14464 3.74969 32694 ft 438 kts 201°
2026-04-21 16:45 41.11592 3.73738 32294 ft 430 kts 204°
2026-04-21 16:45 41.08844 3.72357 31881 ft 426 kts 206°
2026-04-21 16:45 41.06079 3.70927 31429 ft 423 kts 206°
2026-04-21 16:45 41.03346 3.69519 30980 ft 420 kts 205°
2026-04-21 16:46 41.00640 3.68125 30542 ft 417 kts 205°
2026-04-21 16:46 40.97948 3.66741 30102 ft 414 kts 205°
2026-04-21 16:46 40.95298 3.65378 29665 ft 411 kts 205°
2026-04-21 16:46 40.92649 3.64019 29226 ft 408 kts 205°
2026-04-21 16:47 40.90007 3.62663 28785 ft 405 kts 205°
2026-04-21 16:47 40.87361 3.61307 28339 ft 402 kts 205°
2026-04-21 16:47 40.84729 3.59958 27894 ft 399 kts 205°
2026-04-21 16:47 40.82150 3.58639 27459 ft 396 kts 205°
2026-04-21 16:48 40.79620 3.57346 27034 ft 393 kts 205°
2026-04-21 16:48 40.77083 3.56051 26604 ft 390 kts 205°
2026-04-21 16:48 40.74556 3.54761 26173 ft 387 kts 205°
2026-04-21 16:48 40.72051 3.53484 25737 ft 384 kts 205°
2026-04-21 16:49 40.69585 3.52228 25306 ft 381 kts 205°
2026-04-21 16:49 40.67104 3.50966 24868 ft 379 kts 205°
2026-04-21 16:49 40.64669 3.49729 24434 ft 376 kts 205°
2026-04-21 16:49 40.62260 3.48505 24012 ft 373 kts 205°
2026-04-21 16:50 40.59841 3.47275 23579 ft 370 kts 205°
2026-04-21 16:50 40.57439 3.46058 23154 ft 368 kts 205°
2026-04-21 16:50 40.55093 3.44869 22739 ft 365 kts 205°
2026-04-21 16:50 40.52729 3.43671 22324 ft 362 kts 205°
2026-04-21 16:51 40.50402 3.42492 21911 ft 360 kts 205°
2026-04-21 16:51 40.48080 3.41318 21493 ft 357 kts 205°
2026-04-21 16:51 40.45753 3.40218 21074 ft 356 kts 199°
2026-04-21 16:51 40.43301 3.39544 20652 ft 357 kts 190°
2026-04-21 16:52 40.40853 3.39378 20238 ft 357 kts 182°
2026-04-21 16:52 40.38365 3.39490 19835 ft 355 kts 180°
2026-04-21 16:52 40.36725 3.39592 19560 ft 354 kts 180°
2026-04-21 16:52 40.33485 3.39799 19012 ft 351 kts 180°
2026-04-21 16:53 40.31037 3.39950 18596 ft 349 kts 180°
2026-04-21 16:53 40.28630 3.40094 18192 ft 347 kts 180°
2026-04-21 16:53 40.26226 3.40234 17791 ft 345 kts 180°
2026-04-21 16:53 40.23833 3.40372 17382 ft 343 kts 180°
2026-04-21 16:54 40.21453 3.40509 16982 ft 341 kts 180°
2026-04-21 16:54 40.19108 3.40643 16593 ft 340 kts 180°
2026-04-21 16:54 40.16749 3.40777 16184 ft 339 kts 180°
2026-04-21 16:54 40.14411 3.40910 15779 ft 337 kts 180°
2026-04-21 16:55 40.12071 3.41043 15374 ft 336 kts 180°
2026-04-21 16:55 40.09745 3.41176 14976 ft 335 kts 180°
2026-04-21 16:55 40.07398 3.41308 14574 ft 333 kts 180°
2026-04-21 16:55 40.05138 3.41436 14410 ft 323 kts 180°
2026-04-21 16:56 40.02929 3.41563 14296 ft 312 kts 180°
2026-04-21 16:56 40.00781 3.41683 13942 ft 310 kts 180°
2026-04-21 16:56 39.98625 3.41577 13459 ft 304 kts 197°
2026-04-21 16:56 39.96814 3.40351 12728 ft 297 kts 224°
2026-04-21 16:57 39.95356 3.38471 12016 ft 293 kts 228°
2026-04-21 16:57 39.93957 3.36572 11293 ft 292 kts 227°
2026-04-21 16:57 39.92547 3.34723 10569 ft 290 kts 226°
2026-04-21 16:57 39.91111 3.32909 9855 ft 288 kts 225°
2026-04-21 16:58 39.89649 3.31109 9137 ft 286 kts 224°
2026-04-21 16:58 39.88209 3.29363 8443 ft 283 kts 223°
2026-04-21 16:58 39.86777 3.27642 7952 ft 278 kts 223°
2026-04-21 16:58 39.85355 3.25942 7559 ft 277 kts 223°
2026-04-21 16:59 39.83943 3.24261 7169 ft 276 kts 222°
2026-04-21 16:59 39.82528 3.22578 6780 ft 276 kts 222°
2026-04-21 16:59 39.81111 3.20895 6388 ft 276 kts 222°
2026-04-21 16:59 39.79712 3.19237 6023 ft 274 kts 222°
2026-04-21 17:00 39.78302 3.17567 5684 ft 272 kts 222°
2026-04-21 17:00 39.76904 3.15912 5340 ft 270 kts 221°
2026-04-21 17:00 39.75979 3.14816 5115 ft 269 kts 221°
2026-04-21 17:00 39.74187 3.12696 4969 ft 253 kts 221°
2026-04-21 17:01 39.72922 3.11201 4958 ft 239 kts 221°
2026-04-21 17:01 39.71715 3.09764 4786 ft 232 kts 224°
2026-04-21 17:01 39.70672 3.08213 4611 ft 229 kts 232°
2026-04-21 17:01 39.69792 3.06474 4468 ft 229 kts 238°
2026-04-21 17:02 39.68989 3.04687 4324 ft 230 kts 240°
2026-04-21 17:02 39.68220 3.02861 4126 ft 228 kts 240°
2026-04-21 17:02 39.67454 3.01081 3916 ft 224 kts 239°
2026-04-21 17:02 39.66677 2.99377 3713 ft 218 kts 237°
2026-04-21 17:03 39.65876 2.97736 3523 ft 212 kts 234°
2026-04-21 17:03 39.65065 2.96158 3354 ft 205 kts 235°
2026-04-21 17:03 39.64311 2.94650 3265 ft 193 kts 236°
2026-04-21 17:03 39.63643 2.93183 3035 ft 188 kts 238°
2026-04-21 17:04 39.62970 2.91765 2734 ft 186 kts 236°
2026-04-21 17:04 39.62283 2.90362 2495 ft 181 kts 236°
2026-04-21 17:04 39.61623 2.89003 2261 ft 176 kts 237°
2026-04-21 17:04 39.60978 2.87662 2011 ft 172 kts 236°
2026-04-21 17:05 39.60364 2.86382 1768 ft 163 kts 236°
2026-04-21 17:05 39.59800 2.85180 1594 ft 150 kts 236°
2026-04-21 17:05 39.59270 2.84063 1383 ft 143 kts 237°
2026-04-21 17:05 39.58769 2.82961 1215 ft 141 kts 237°
2026-04-21 17:06 39.58252 2.81883 1058 ft 141 kts 237°
2026-04-21 17:06 39.57736 2.80807 866 ft 139 kts 236°
2026-04-21 17:06 39.57225 2.79749 679 ft 135 kts 237°
2026-04-21 17:06 39.56743 2.78709 507 ft 135 kts 238°
2026-04-21 17:07 39.56418 2.78015 399 ft 136 kts 237°
2026-04-21 17:07 39.55764 2.76641 163 ft 133 kts 239°
2026-04-21 17:07 39.55296 2.75650 46 ft 121 kts 238°
2026-04-21 17:07 39.54945 2.74905 45 ft 72 kts 238°
2026-04-21 17:08 39.54813 2.74512 44 ft 31 kts 257°
2026-04-21 17:08 39.54799 2.74298 44 ft 21 kts 268°
2026-04-21 17:08 39.54784 2.74130 44 ft 17 kts 248°
2026-04-21 17:08 39.54723 2.73989 44 ft 17 kts 239°
2026-04-21 17:09 39.54593 2.73716 43 ft 13 kts 239°
2026-04-21 17:09 39.54584 2.73646 43 ft 8 kts 306°
2026-04-21 17:09 39.54639 2.73616 43 ft 9 kts 348°
2026-04-21 17:10 39.54701 2.73580 44 ft 10 kts 329°
2026-04-21 17:10 39.54767 2.73527 44 ft 10 kts 328°
2026-04-21 17:10 39.54810 2.73521 44 ft 7 kts 55°
2026-04-21 17:10 39.54831 2.73563 44 ft 0 kts 58°